Location: Chassagnes
(44.4047°N, 4.1657°E)
Time: 12:09:52
(UTC+00:00)

Atlas Centaur 2 - Pass Details

Date: 27 October 2020
Orbit: 459 x 1309 km, 30.4° (Epoch: 23 November)

Event Time Altitude Azimuth Distance (km) Brightness Sun altitude
Rises 17:20:33 0° 225° (SW) 4,115 6.8 -8.0°
Reaches altitude 10° 17:23:58 10° 213° (SSW) 3,233 5.9 -8.6°
Maximum altitude 17:30:15 24° 164° (SSE) 2,408 4.5 -9.7°
Drops below altitude 10° 17:36:38 10° 115° (ESE) 3,297 4.8 -10.8°
Enters shadow 17:37:23 - 111° (ESE) 3,478 4.8 -10.9°
